Regional Weather Roundup
Issued by NWS

Home | Current Version | Previous Version | Text Only | Print | Product List | Glossary On
Versions: 1 2 3 4 5 6 7 8 9 10 11 12 13 14 15 16 17 18 19 20 21 22 23 24 25 26 27 28 29 30 31 32 33 34 35 36 37 38 39 40 41 42 43 44 45 46 47 48 49 50
000
ASUS43 KMKX 031121
RWRWI

WISCONSIN REGIONAL WEATHER ROUNDUP
NATIONAL WEATHER SERVICE MILWAUKEE/SULLIVAN WI
600 AM CDT MON AUG 03 2015

NOTE: "FAIR" INDICATES FEW OR NO CLOUDS BELOW 12,000 FEET WITH NO
SIGNIFICANT WEATHER AND/OR OBSTRUCTIONS TO VISIBILITY.

WIZ001-002-006>008-014>016-023>028-031200-
NORTHWEST WISCONSIN

CITY           SKY/WX    TMP DP  RH WIND       PRES   REMARKS
SUPERIOR ARPT  PTCLDY    58  48  68 NW13      29.79R
ASHLAND        CLEAR     54  48  80 SW6       29.78R
HAYWARD        CLEAR     49  45  86 S3        29.82S
SIREN          CLEAR     54  48  81 W6        29.84S
CUMBERLAND     PTCLDY    50  46  87 W5        29.84F
RICE LAKE      CLEAR     52  47  84 CALM      29.85F
CHETEK         CLEAR     57  49  73 W5        29.84S
LADYSMITH      CLEAR     55  49  80 W7        29.84S
EAU CLAIRE     CLEAR     57  49  74 W7        29.83S
MENOMONIE      CLEAR     56  50  80 SW3       29.85S
NEW RICHMOND   CLEAR     52  50  92 W3        29.87R
OSCEOLA        CLEAR     50  50 100 CALM      29.89S
$$

WIZ003>005-009-010-017-018-031200-
NORTH CENTRAL WISCONSIN

CITY           SKY/WX    TMP DP  RH WIND       PRES   REMARKS
MANITOWISH WTR CLEAR     52  50  94 W3        29.78S
ARBOR VITAE    CLEAR     55  51  87 CALM      29.79R
WOODRUFF       CLEAR     55  51  87 CALM      29.79R
RHINELANDER    CLEAR     50  48  93 W7        29.80R
EAGLE RIVER    PTCLDY    50  48  94 W6        29.78R
LAND O LAKES   PTCLDY    55  49  79 W3        29.78R
PHILLIPS       CLEAR     51  48  92 CALM      29.80S
TOMAHAWK       PTCLDY    49  47  93 CALM      29.81R
MEDFORD        CLEAR     51  48  89 W5        29.82S
MERRILL        NOT AVBL
$$

WIZ029-030-035-036-043>047-031200-
CENTRAL WISCONSIN

CITY           SKY/WX    TMP DP  RH WIND       PRES   REMARKS
WAUSAU         CLEAR     57  50  77 NW9       29.79R
MOSINEE        NOT AVBL
MARSHFIELD     CLEAR     54  47  77 NW6       29.83R
STEVENS POINT  CLEAR     56  50  79 NW3       29.82R
WAUPACA        CLEAR     60  55  85 W7        29.80S
WAUTOMA        CLEAR     56  54  93 W6        29.82S
WISC RAPIDS    CLEAR     56  49  77 W7        29.83R
CAMP DOUGLAS   CLEAR     51  50  96 W8        29.84R
$$

WIZ011>013-019>022-031-037>040-048>050-031200-
NORTHEAST WISCONSIN

CITY           SKY/WX    TMP DP  RH WIND       PRES   REMARKS
ANTIGO         CLEAR     51  49  95 CALM      29.80S
SHAWANO        CLEAR     57  54  87 W6        29.78R
OCONTO         MOCLDY    57  57 100 W5        29.75R
STURGEON BAY   MOCLDY    61  52  72 NW7       29.78R
GREEN BAY      CLEAR     57  55  93 W8        29.77R
MANITOWOC      CLEAR     61  56  83 MISG      29.78R
APPLETON       PTCLDY    55  54  94 W9        29.79R
CLINTONVILLE   CLEAR     55  52  88 W5        29.79R
OSHKOSH        CLEAR     59  53  80 W5        29.79R
$$

WIZ032>034-041-042-053>061-031200-
SOUTHWEST WISCONSIN

CITY           SKY/WX    TMP DP  RH WIND       PRES   REMARKS
LA CROSSE      CLEAR     59  53  80 SE3       29.86R
SPARTA         CLEAR     49  46  92 E3        29.87R
VIROQUA        CLEAR     56  50  81 W5        29.88R
BOSCOBEL       CLEAR     55  53  93 CALM      29.87R
PRAIRIE DU CHI CLEAR     59  55  85 CALM      29.88R
PLATTEVILLE    CLEAR     60  56  85 NW3       29.87R
$$

WIZ056-057-062-063-064-067-068-031200-
SOUTH CENTRAL WISCONSIN

CITY           SKY/WX    TMP DP  RH WIND       PRES   REMARKS
REEDSBURG      CLEAR     59  53  80 NW3       29.85S
BARABOO/DELLS  CLEAR     58  49  70 CALM      29.84S
LONE ROCK      CLEAR     58  53  84 W5        29.86R
MINERAL POINT  CLEAR     61  54  77 NW5       29.86S
MADISON        PTCLDY    63  54  72 CALM      29.83R
MIDDLETON      CLEAR     60  54  78 NW5       29.85R
WATERTOWN      CLEAR     57  57 100 SW3       29.82R
MONROE         CLEAR     63  54  72 NW7       29.84S
JANESVILLE     CLEAR     63  59  88 NW5       29.82R
$$

WIZ051-052-058>065-066-070>072-031200-
SOUTHEAST WISCONSIN

CITY           SKY/WX    TMP DP  RH WIND       PRES   REMARKS
MILWAUKEE      PTCLDY    67  57  70 NW6       29.79R
WAUKESHA       CLEAR     61  57  88 W9        29.81R
MILWAUKEE/TIMM CLEAR     61  54  77 W6        29.81R
RACINE         MOCLDY    64  60  87 W6        29.81R
BURLINGTON     CLEAR     58  56  93 NW6       29.81R
KENOSHA        MOCLDY    64  61  90 NW6       29.80R
FOND DU LAC    CLEAR     60  54  80 W8        29.80R
SHEBOYGAN      CLEAR     61  58  90 W6        29.79R
WEST BEND      CLEAR     59  54  82 W7        29.81R
JUNEAU         CLEAR     60  56  85 W3        29.83R
$$

LSZ147-162-031200-
LAKE SUPERIOR

STATION/POSITION TIME  TEMP    WIND        PRES    WAVE
                       AIR SEA DIR/SP/G            HT/PER
                 (UTC) (F)     (DEG/KT/KT) (MB)    (FT/S)
W MID LAKE BUOY  1050   58 55  260/ 14/ 16 1005.9S   1/ 3
DEVILS ISLAND    1100   58     260/ 18/ 22 1007.1R
PORT WING        1040   58     220/  7/  9 1008.8R
SAXON HARBOR     1000   60                 1007.5
$$

LMZ867-665-643>646-031200-
LAKE MICHIGAN

STATION/POSITION TIME  TEMP    WIND        PRES    WAVE
                       AIR SEA DIR/SP/G            HT/PER
                 (UTC) (F)     (DEG/KT/KT) (MB)    (FT/S)
CHAMBERS ISLAND  1000   61     270/  3/ 10 1006.4R
S GREEN BAY BUOY 1100   61 64  280/ 12/ 14 1008.9R
N MID LAKE BUOY  1050   64 68  270/ 14/ 14 1005.3R   1/ 3
NORTHPORT PIER   1000   63     280/  5/  9 1006.1R
SISTER BAY       1048   64     320/ 21/ 23   N/A
ALGOMA LAKESHORE 1012           CALM  /  3   N/A
KEWAUNEE LAKESHO 1100   59     290/  5/  6 1007.2R
SHEBOYGAN LAKESH 1100   64     280/ 11/ 12 1008.6R
PORT WASHINGTON  1040   64     300/  8/ 11 1009.1R
ATWATER BUOY     1100   64 63  290/ 10/ 12 1010.0R
MILWAUKEE LAKESH 1100   67     300/  7/ 11   N/A
KENOSHA   LAKESH 1100   67     290/ 10/ 14 1008.5R
$$

TC  - TEMPERATURE IN CELSIUS
VSB - VISIBILITY IN STATUTE MILES
WCI - WIND CHILL INDEX
HX  - HEAT INDEX




USA.gov is the U.S. government's official web portal to all federal, state and local government web resources and services.